Location: Newark
(49.8969°N, 3.3422°E)
Time: 06:27:28
(UTC+00:00)

A-11 Canister half - All Passes

Search period start: 26 January 2020 00:00
Search period end: 05 February 2020 00:00
Orbit: 1517 x 1683 km, 47.2° (Epoch: 25 January)

Date Brightness Start Highest point End Pass type
(mag) Time Alt. Az. Time Alt. Az. Time Alt. Az.
26 Jan - 00:25:05 10° WSW 00:34:19 65° SSE 00:43:26 10° E visible
26 Jan - 02:29:35 10° W 02:38:52 76° S 02:48:07 10° ESE visible
26 Jan - 04:34:21 10° W 04:43:10 51° SSW 04:52:02 10° SE visible
26 Jan - 06:40:14 10° W 06:46:22 20° SW 06:52:35 10° S visible
26 Jan - 21:59:48 10° SSW 22:07:43 31° SE 22:15:29 10° E night (unlit)
27 Jan - 00:02:12 10° WSW 00:11:27 64° SSE 00:20:32 10° E visible
27 Jan - 02:06:41 10° W 02:15:58 76° S 02:25:13 10° E visible
27 Jan - 04:11:26 10° W 04:20:19 53° SSW 04:29:13 10° SE visible
27 Jan - 06:17:10 10° W 06:23:35 21° SW 06:30:04 10° S visible
27 Jan - 21:37:08 10° SSW 21:44:54 30° SE 21:52:32 10° E night (unlit)
27 Jan - 23:39:20 10° SW 23:48:34 62° SSE 23:57:38 10° E night (unlit)
28 Jan - 01:43:47 10° W 01:53:05 77° S 02:02:20 10° E visible
28 Jan - 03:48:33 10° W 03:57:27 55° SSW 04:06:25 10° SE visible
28 Jan - 05:54:07 10° W 06:00:48 23° SW 06:07:32 10° S visible
28 Jan - 21:14:28 10° S 21:22:06 28° SE 21:29:34 10° E night (unlit)
28 Jan - 23:16:28 10° SW 23:25:42 61° SSE 23:34:45 10° E night (unlit)
29 Jan - 01:20:52 10° W 01:30:11 77° S 01:39:26 10° E visible
29 Jan - 03:25:38 10° W 03:34:36 56° SSW 03:43:35 10° SE visible
29 Jan - 05:31:06 10° W 05:38:00 24° SW 05:44:58 10° S visible
29 Jan - 20:51:49 10° S 20:59:17 27° SE 21:06:35 10° E visible
29 Jan - 22:53:37 10° SW 23:02:50 59° SSE 23:11:51 10° E night (unlit)
30 Jan - 00:57:57 10° W 01:07:18 77° S 01:16:32 10° E visible
30 Jan - 03:02:44 10° W 03:11:45 58° SSW 03:20:45 10° SE visible
30 Jan - 05:08:05 10° W 05:15:13 26° SW 05:22:23 10° S visible
30 Jan - 20:29:12 10° S 20:36:28 25° SE 20:43:36 10° E visible
30 Jan - 22:30:46 10° SW 22:39:58 57° SSE 22:48:57 10° E night (unlit)
31 Jan - 00:35:02 10° W 00:44:25 77° S 00:53:39 10° E visible
31 Jan - 02:39:49 10° W 02:48:53 60° SSW 02:57:55 10° SE visible
31 Jan - 04:45:05 10° W 04:52:25 27° SW 04:59:46 10° S visible
31 Jan - 20:06:37 10° S 20:13:40 24° SE 20:20:35 10° E visible
31 Jan - 22:07:55 10° SW 22:17:06 56° SSE 22:26:04 10° E visible
01 Feb - 00:12:07 10° W 00:21:31 77° S 00:30:46 10° E night (unlit)
01 Feb - 02:16:54 10° W 02:26:02 62° SSW 02:35:04 10° SE visible
01 Feb - 04:22:07 10° W 04:29:37 29° SW 04:37:08 10° SSE visible
01 Feb - 19:44:02 10° S 19:50:53 22° SE 19:57:35 10° E visible
01 Feb - 21:45:04 10° SW 21:54:14 54° SSE 22:03:11 10° E visible
01 Feb - 23:49:12 10° W 23:58:38 77° S 00:07:52 10° E night (unlit)
02 Feb - 01:53:59 10° W 02:03:09 63° SSW 02:12:14 10° ESE visible
02 Feb - 03:59:08 10° W 04:06:49 30° SW 04:14:30 10° SSE visible
02 Feb - 19:21:30 10° S 19:28:05 21° SE 19:34:32 10° E visible
02 Feb - 21:22:14 10° SW 21:31:23 52° SSE 21:40:17 10° E visible
02 Feb - 23:26:16 10° WSW 23:35:44 76° S 23:44:59 10° E night (unlit)
03 Feb - 01:31:05 10° W 01:40:17 65° SSW 01:49:23 10° ESE visible
03 Feb - 03:36:10 10° W 03:44:00 32° SW 03:51:49 10° SSE visible
03 Feb - 18:58:59 10° S 19:05:17 20° SE 19:11:28 10° E visible
03 Feb - 20:59:24 10° SW 21:08:31 50° SSE 21:17:23 10° E visible
03 Feb - 23:03:22 10° WSW 23:12:50 76° S 23:22:05 10° E visible
04 Feb - 01:08:10 10° W 01:17:25 66° SSW 01:26:32 10° ESE visible
04 Feb - 03:13:12 10° W 03:21:12 34° SW 03:29:09 10° SSE visible
04 Feb - 18:36:31 10° SSE 18:42:30 18° SE 18:48:22 10° E visible
04 Feb - 20:36:35 10° SW 20:45:40 48° SSE 20:54:29 10° E visible
04 Feb - 22:40:27 10° WSW 22:49:56 75° S 22:59:11 10° E visible
